Location: Klickitat County Star Party
(45.8642°N, 120.6771°W)
Time: 11:10:15
(UTC-07:00)

N. Korean satellite - Visible Passes

Search period start: 20 March 2019 00:00
Search period end: 30 March 2019 00:00
Orbit: 455 x 510 km, 97.2° (Epoch: 19 March)

Date Brightness Start Highest point End Pass type
(mag) Time Alt. Az. Time Alt. Az. Time Alt. Az.
20 Mar 9.8 06:22:56 10° NE 06:25:19 17° E 06:27:44 10° SE visible
24 Mar 9.9 06:17:17 10° NE 06:19:26 15° E 06:21:35 10° SE visible
28 Mar 10.1 06:11:39 10° ENE 06:13:28 13° E 06:15:17 10° ESE visible
